• Processing (Info)

  • MPEC 2006-V12 : 2006 VH

    The following Minor Planet Electronic Circular may be linked-to from your own Web pages, but must not otherwise be redistributed electronically.

    A form allowing access to any MPEC is at the bottom of this page.


    Read MPEC 2006-V11 Read MPEC 2006-V13


    M.P.E.C. 2006-V12                                Issued 2006 Nov. 2, 16:59 UT
    
         The Minor Planet Electronic Circulars contain information on unusual
             minor planets and routine data on comets.  They are published
       on behalf of Commission 20 of the International Astronomical Union by the
              Minor Planet Center, Smithsonian Astrophysical Observatory,
                              Cambridge, MA 02138, U.S.A.
    
                 Prepared using the Tamkin Foundation Computer Network
    
                                  MPC@CFA.HARVARD.EDU
              URL http://cfa-www.harvard.edu/iau/mpc.html  ISSN 1523-6714
    
                                        2006 VH
    
    Observations:
         K06V00H* C2006 11 01.49578 09 22 32.64 +18 10 45.1          20.7 V EV012691
         K06V00H  C2006 11 01.50823 09 22 33.37 +18 10 33.1          21.0 V EV012691
         K06V00H  C2006 11 01.52067 09 22 34.12 +18 10 20.8          21.1 V EV012691
         K06V00H  C2006 11 02.14182 09 23 11.60 +18 00 14.3                 EV012J95
         K06V00H  C2006 11 02.15308 09 23 12.35 +18 00 03.4                 EV012J95
         K06V00H  C2006 11 02.22800 09 23 16.62 +17 58 50.4          20.7 R EV012J95
         K06V00H  C2006 11 02.41959 09 23 28.28 +17 55 45.2          20.8 V EV012G96
         K06V00H  C2006 11 02.42332 09 23 28.46 +17 55 41.8          20.8 V EV012G96
         K06V00H  C2006 11 02.42704 09 23 28.68 +17 55 38.5          20.9 V EV012G96
         K06V00H  C2006 11 02.43083 09 23 28.93 +17 55 34.6          20.8 V EV012G96
         K06V00H HC2006 11 02.43831 09 23 29.43 +17 55 27.5                 EV012691
         K06V00H HC2006 11 02.44413 09 23 29.72 +17 55 21.9                 EV012691
    
    Observer details:
    691 Steward Observatory, Kitt Peak.  Observer R. S. McMillan.  0.9-m f/3
        reflector + CCD.
    G96 Mt. Lemmon Survey.  Observer R. A. Kowalski.  Measurers E. C. Beshore,
        E. J. Christensen, G. J. Garradd, A. R. Gibbs, A. D. Grauer, R. E. Hill,
        R. A. Kowalski, S. M. Larson, R. H. McNaught.  1.5-m reflector + CCD.
    J95 Great Shefford.  Observer P. Birtwhistle.  0.40-m f/6.0 Schmidt-Cassegrain
        + CCD.
    
    Orbital elements:
    2006 VH                                                  Earth MOID = 0.2684 AU
    Epoch 2006 Nov. 1.0 TT = JDT 2454040.5                  MPC
    M 100.57011              (2000.0)            P               Q
    n   0.73643325     Peri.   32.47652     +0.64947529     +0.64908942
    a   1.2144523      Node   281.50034     -0.75494592     +0.48827492
    e   0.4377916      Incl.   23.83950     -0.09076619     +0.58332712
    P   1.34           H   17.9           G   0.15
    From 12 observations 2006 Nov. 1-2.
    
    Ephemeris:
    2006 VH                  a,e,i = 1.21, 0.44, 24                  q = 0.6828
    Date    TT    R. A. (2000) Decl.     Delta      r     Elong.  Phase     V
    2006 11 01    09 22.03   +18 18.8    1.281    1.495    81.2    41.0    20.9
    2006 11 11    09 30.79   +15 36.0    1.209    1.540    88.3    40.0    20.8
    2006 11 21    09 36.11   +12 51.5    1.130    1.580    96.3    38.4    20.7
    2006 12 01    09 37.33   +10 05.8    1.047    1.616   105.2    36.1    20.5
    2006 12 11    09 33.66   +07 19.4    0.967    1.648   115.2    32.7    20.3
    2006 12 21    09 24.25   +04 35.0    0.893    1.675   126.2    28.3    20.0
    2006 12 31    09 08.53   +01 58.7    0.833    1.697   138.2    22.7    19.7
    2007 01 10    08 46.93   -00 19.2    0.793    1.716   149.7    16.8    19.5
    2007 01 20    08 21.41   -02 04.8    0.780    1.730   157.3    12.7    19.3
    2007 01 30    07 55.47   -03 07.6    0.795    1.739   155.3    13.7    19.4
    2007 02 09    07 32.81   -03 27.8    0.838    1.745   145.9    18.5    19.7
    2007 02 19    07 15.80   -03 14.9    0.903    1.746   134.8    23.7    20.0
    2007 03 01    07 05.20   -02 42.4    0.984    1.743   124.0    28.1    20.3
    2007 03 11    07 00.56   -02 02.3    1.074    1.736   114.2    31.5    20.6
    2007 03 21    07 00.97   -01 22.3    1.168    1.724   105.3    33.9    20.8
    2007 03 31    07 05.55   -00 47.9    1.263    1.708    97.4    35.4    21.0
    2007 04 10    07 13.44   -00 22.2    1.354    1.688    90.3    36.4    21.2
    2007 04 20    07 24.04   -00 06.9    1.440    1.664    83.8    36.9    21.3
    2007 04 30    07 36.87   -00 03.4    1.517    1.635    77.8    37.0    21.4
    2007 05 10    07 51.55   -00 12.3    1.585    1.601    72.4    36.9    21.4
    2007 05 20    08 07.87   -00 34.1    1.643    1.564    67.4    36.7    21.4
    2007 05 30    08 25.64   -01 09.2    1.688    1.521    62.8    36.3    21.4
    
    Kyle E. Smalley              (C) Copyright 2006 MPC           M.P.E.C. 2006-V12
    

    Read MPEC 2006-V11 Read MPEC 2006-V13


    MPEC number:

    Enter an MPEC number in one of the following forms:

    • 1997-B01 (the full form)
    • J97B01 (the packed version of the full form)
    • B01 (the abbreviated form)